Location: Oberwangen
(47.4286°N, 8.9679°E)
Time: 15:26:32
(UTC+00:00)

CZ-2C R/B - Pass Details

Date: 20 June 2021
Orbit: 640 x 704 km, 98.3° (Epoch: 03 August)

Event Time Altitude Azimuth Distance (km) Brightness Sun altitude
Rises 20:40:57 0° 11° (NNE) 3,104 7.8 -10.0°
Reaches altitude 10° 20:43:13 10° 10° (N) 2,184 7.0 -10.2°
Maximum altitude 20:47:59 69° 287° (WNW) 755 4.2 -10.7°
Drops below altitude 10° 20:52:42 10° 205° (SSW) 2,162 6.1 -11.2°
Sets 20:54:57 0° 203° (SSW) 3,071 6.8 -11.4°
